Location: Burbank
(38.7788°N, 114.0429°W)
Time: 20:56:17
(UTC+00:00)

S-56A Canister/Altair - Pass Details

Date: 15 May 2026
Orbit: 632 x 2484 km, 38.9° (Epoch: 8 June)

Event Time Altitude Azimuth Distance (km) Brightness Sun altitude
Rises 02:15:42 0° 208° (SSW) 3,390 10.9 3.7°
Reaches altitude 10° 02:19:12 10° 189° (S) 2,235 9.8 3.0°
Maximum altitude 02:22:22 17° 149° (SSE) 1,684 8.9 2.5°
Drops below altitude 10° 02:25:15 10° 108° (ESE) 2,020 9.1 2.0°
Sets 02:28:11 0° 87° (E) 2,918 9.9 1.4°
